Location: Saint-Hippolyte
(43.6394°N, 4.7559°E)
Time: 15:07:52
(UTC+00:00)

USA 215 - Pass Details

Date: 24 October 2020
Orbit: 1102 x 1106 km, 123.0° (Epoch: 23 November)

Event Time Altitude Azimuth Distance (km) Brightness Sun altitude
Exits shadow 18:17:24 24° 67° (ENE) 2,118 4.2 -17.7°
Maximum altitude 18:20:32 37° 20° (NNE) 1,659 4.0 -18.3°
Drops below altitude 10° 18:26:23 10° 316° (NW) 2,966 6.1 -19.4°
Sets 18:29:03 0° 309° (NW) 3,925 7.0 -19.9°
